Year,Month,Day,Hour,Minute,Value (Times are PST for temperature in C)
2013,03,28,00,00,7.50
2013,03,28,00,01,7.50
2013,03,28,00,02,7.50
2013,03,28,00,03,7.50
2013,03,28,00,04,7.50
2013,03,28,00,05,7.50
2013,03,28,00,06,7.50
2013,03,28,00,07,7.50
2013,03,28,00,08,7.50
2013,03,28,00,09,7.50
2013,03,28,00,10,7.40
2013,03,28,00,11,7.40
2013,03,28,00,12,7.40
2013,03,28,00,13,7.40
2013,03,28,00,14,7.40
2013,03,28,00,15,7.40
2013,03,28,00,16,7.40
2013,03,28,00,17,7.40
2013,03,28,00,18,7.40
2013,03,28,00,19,7.40
2013,03,28,00,20,7.40
2013,03,28,00,21,7.30
2013,03,28,00,22,7.30
2013,03,28,00,23,7.30
2013,03,28,00,24,7.30
2013,03,28,00,25,7.30
2013,03,28,00,26,7.30
2013,03,28,00,27,7.30
2013,03,28,00,28,7.30
2013,03,28,00,29,7.30
2013,03,28,00,30,7.30
2013,03,28,00,31,7.30
2013,03,28,00,32,7.30
2013,03,28,00,33,7.20
2013,03,28,00,34,7.20
2013,03,28,00,35,7.20
2013,03,28,00,36,7.20
2013,03,28,00,37,7.20
2013,03,28,00,38,7.20
2013,03,28,00,39,7.20
2013,03,28,00,40,7.20
2013,03,28,00,41,7.20
2013,03,28,00,42,7.20
2013,03,28,00,43,7.20
2013,03,28,00,44,7.20
2013,03,28,00,45,7.20
2013,03,28,00,46,7.20
2013,03,28,00,47,7.20
2013,03,28,00,48,7.20
2013,03,28,00,49,7.20
2013,03,28,00,50,7.20
2013,03,28,00,51,7.20
2013,03,28,00,52,7.20
2013,03,28,00,53,7.20
2013,03,28,00,54,7.20
2013,03,28,00,55,7.20
2013,03,28,00,56,7.20
2013,03,28,00,57,7.20
2013,03,28,00,58,7.20
2013,03,28,00,59,7.20
2013,03,28,01,00,7.20
2013,03,28,01,01,7.20
2013,03,28,01,02,7.20
2013,03,28,01,03,7.20
2013,03,28,01,04,7.20
2013,03,28,01,05,7.20
2013,03,28,01,06,7.20
2013,03,28,01,07,7.10
2013,03,28,01,08,7.10
2013,03,28,01,09,7.10
2013,03,28,01,10,7.10
2013,03,28,01,11,7.10
2013,03,28,01,12,7.10
2013,03,28,01,13,7.10
2013,03,28,01,14,7.10
2013,03,28,01,15,7.10
2013,03,28,01,16,7.10
2013,03,28,01,17,7.10
2013,03,28,01,18,7.10
2013,03,28,01,19,7.10
2013,03,28,01,20,7.00
2013,03,28,01,21,7.00
2013,03,28,01,22,7.00
2013,03,28,01,23,7.00
2013,03,28,01,24,7.00
2013,03,28,01,25,7.00
2013,03,28,01,26,6.90
2013,03,28,01,27,6.90
2013,03,28,01,28,6.90
2013,03,28,01,29,6.90
2013,03,28,01,30,6.90
2013,03,28,01,31,6.90
2013,03,28,01,32,6.90
2013,03,28,01,33,6.90
2013,03,28,01,34,6.90
2013,03,28,01,35,6.90
2013,03,28,01,36,6.90
2013,03,28,01,37,6.90
2013,03,28,01,38,6.90
2013,03,28,01,39,6.90
2013,03,28,01,40,6.90
2013,03,28,01,41,6.90
2013,03,28,01,42,6.90
2013,03,28,01,43,6.90
2013,03,28,01,44,6.90
2013,03,28,01,45,6.90
2013,03,28,01,46,6.90
2013,03,28,01,47,6.90
2013,03,28,01,48,6.90
2013,03,28,01,49,6.90
2013,03,28,01,50,6.90
2013,03,28,01,51,6.90
2013,03,28,01,52,6.90
2013,03,28,01,53,6.90
2013,03,28,01,54,6.90
2013,03,28,01,55,6.90
2013,03,28,01,56,6.90
2013,03,28,01,57,6.90
2013,03,28,01,58,6.90
2013,03,28,01,59,6.90
2013,03,28,02,00,6.90
2013,03,28,02,01,6.90
2013,03,28,02,02,6.90
2013,03,28,02,03,6.90
2013,03,28,02,04,6.90
2013,03,28,02,05,6.90
2013,03,28,02,06,6.90
2013,03,28,02,07,6.90
2013,03,28,02,08,6.90
2013,03,28,02,09,6.90
2013,03,28,02,10,6.90
2013,03,28,02,11,6.90
2013,03,28,02,12,6.90
2013,03,28,02,13,6.90
2013,03,28,02,14,6.90
2013,03,28,02,15,6.90
2013,03,28,02,16,6.90
2013,03,28,02,17,6.90
2013,03,28,02,18,6.90
2013,03,28,02,19,6.90
2013,03,28,02,20,6.90
2013,03,28,02,21,6.90
2013,03,28,02,22,6.90
2013,03,28,02,23,6.90
2013,03,28,02,24,6.90
2013,03,28,02,25,6.90
2013,03,28,02,26,6.90
2013,03,28,02,27,6.90
2013,03,28,02,28,6.90
2013,03,28,02,29,6.90
2013,03,28,02,30,6.90
2013,03,28,02,31,6.90
2013,03,28,02,32,6.90
2013,03,28,02,33,6.80
2013,03,28,02,34,6.80
2013,03,28,02,35,6.80
2013,03,28,02,36,6.80
2013,03,28,02,37,6.80
2013,03,28,02,38,6.80
2013,03,28,02,39,6.80
2013,03,28,02,40,6.80
2013,03,28,02,41,6.80
2013,03,28,02,42,6.80
2013,03,28,02,43,6.80
2013,03,28,02,44,6.80
2013,03,28,02,45,6.80
2013,03,28,02,46,6.80
2013,03,28,02,47,6.80
2013,03,28,02,48,6.80
2013,03,28,02,49,6.80
2013,03,28,02,50,6.80
2013,03,28,02,51,6.80
2013,03,28,02,52,6.80
2013,03,28,02,53,6.80
2013,03,28,02,54,6.80
2013,03,28,02,55,6.80
2013,03,28,02,56,6.80
2013,03,28,02,57,6.80
2013,03,28,02,58,6.80
2013,03,28,02,59,6.80
2013,03,28,03,00,6.80
2013,03,28,03,01,6.80
2013,03,28,03,02,6.80
2013,03,28,03,03,6.80
2013,03,28,03,06,6.80
2013,03,28,03,07,6.80
2013,03,28,03,08,6.80
2013,03,28,03,09,6.80
2013,03,28,03,10,6.80
2013,03,28,03,11,6.90
2013,03,28,03,12,6.90
2013,03,28,03,13,6.90
2013,03,28,03,14,6.90
2013,03,28,03,15,6.90
2013,03,28,03,16,6.90
2013,03,28,03,17,6.90
2013,03,28,03,18,6.90
2013,03,28,03,19,6.90
2013,03,28,03,20,6.90
2013,03,28,03,21,6.90
2013,03,28,03,22,6.90
2013,03,28,03,23,6.90
2013,03,28,03,24,6.90
2013,03,28,03,25,6.90
2013,03,28,03,26,6.90
2013,03,28,03,27,6.90
2013,03,28,03,28,6.90
2013,03,28,03,29,6.90
2013,03,28,03,30,6.90
2013,03,28,03,31,6.90
2013,03,28,03,32,6.90
2013,03,28,03,33,6.90
2013,03,28,03,34,6.90
2013,03,28,03,35,6.90
2013,03,28,03,36,6.90
2013,03,28,03,37,6.90
2013,03,28,03,38,6.90
2013,03,28,03,39,6.90
2013,03,28,03,40,6.90
2013,03,28,03,41,6.90
2013,03,28,03,42,6.90
2013,03,28,03,43,6.90
2013,03,28,03,44,6.90
2013,03,28,03,45,6.90
2013,03,28,03,46,6.90
2013,03,28,03,47,7.00
2013,03,28,03,48,7.00
2013,03,28,03,49,7.00
2013,03,28,03,50,7.00
2013,03,28,03,51,7.00
2013,03,28,03,52,7.00
2013,03,28,03,53,7.00
2013,03,28,03,54,7.00
2013,03,28,03,55,7.00
2013,03,28,03,56,7.00
2013,03,28,03,57,7.00
2013,03,28,03,58,7.10
2013,03,28,03,59,7.10
2013,03,28,04,00,7.10
2013,03,28,04,01,7.10
2013,03,28,04,02,7.10
2013,03,28,04,03,7.10
2013,03,28,04,04,7.10
2013,03,28,04,05,7.10
2013,03,28,04,06,7.10
2013,03,28,04,07,7.10
2013,03,28,04,08,7.10
2013,03,28,04,09,7.10
2013,03,28,04,10,7.10
2013,03,28,04,11,7.10
2013,03,28,04,12,7.10
2013,03,28,04,13,7.10
2013,03,28,04,14,7.10
2013,03,28,04,15,7.10
2013,03,28,04,16,7.10
2013,03,28,04,17,7.10
2013,03,28,04,18,7.10
2013,03,28,04,19,7.10
2013,03,28,04,20,7.10
2013,03,28,04,21,7.10
2013,03,28,04,22,7.10
2013,03,28,04,23,7.10
2013,03,28,04,24,7.10
2013,03,28,04,25,7.10
2013,03,28,04,26,7.10
2013,03,28,04,27,7.10
2013,03,28,04,28,7.10
2013,03,28,04,29,7.10
2013,03,28,04,30,7.10
2013,03,28,04,31,7.10
2013,03,28,04,32,7.10
2013,03,28,04,33,7.10
2013,03,28,04,34,7.10
2013,03,28,04,35,7.10
2013,03,28,04,36,7.10
2013,03,28,04,37,7.10
2013,03,28,04,38,7.20
2013,03,28,04,39,7.20
2013,03,28,04,40,7.20
2013,03,28,04,41,7.20
2013,03,28,04,42,7.20
2013,03,28,04,43,7.20
2013,03,28,04,44,7.20
2013,03,28,04,45,7.20
2013,03,28,04,46,7.20
2013,03,28,04,47,7.20
2013,03,28,04,48,7.20
2013,03,28,04,49,7.20
2013,03,28,04,50,7.20
2013,03,28,04,51,7.20
2013,03,28,04,52,7.20
2013,03,28,04,53,7.20
2013,03,28,04,54,7.20
2013,03,28,04,55,7.20
2013,03,28,04,56,7.20
2013,03,28,04,57,7.20
2013,03,28,04,58,7.20
2013,03,28,04,59,7.20
2013,03,28,05,00,7.20
2013,03,28,05,01,7.20
2013,03,28,05,02,7.20
2013,03,28,05,03,7.20
2013,03,28,05,04,7.20
2013,03,28,05,05,7.20
2013,03,28,05,06,7.20
2013,03,28,05,07,7.20
2013,03,28,05,08,7.20
2013,03,28,05,09,7.10
2013,03,28,05,10,7.10
2013,03,28,05,11,7.10
2013,03,28,05,12,7.10
2013,03,28,05,13,7.10
2013,03,28,05,14,7.10
2013,03,28,05,15,7.10
2013,03,28,05,16,7.10
2013,03,28,05,17,7.10
2013,03,28,05,18,7.10
2013,03,28,05,19,7.10
2013,03,28,05,20,7.00
2013,03,28,05,21,7.00
2013,03,28,05,22,7.00
2013,03,28,05,23,7.00
2013,03,28,05,24,7.00
2013,03,28,05,25,7.00
2013,03,28,05,26,6.90
2013,03,28,05,27,6.90
2013,03,28,05,28,6.90
2013,03,28,05,29,6.90
2013,03,28,05,30,6.90
2013,03,28,05,31,6.90
2013,03,28,05,32,6.90
2013,03,28,05,33,6.90
2013,03,28,05,34,7.00
2013,03,28,05,35,7.00
2013,03,28,05,36,7.00
2013,03,28,05,37,7.00
2013,03,28,05,38,7.00
2013,03,28,05,39,7.00
2013,03,28,05,40,7.00
2013,03,28,05,41,7.00
2013,03,28,05,42,7.00
2013,03,28,05,43,7.00
2013,03,28,05,44,7.00
2013,03,28,05,45,7.00
2013,03,28,05,46,7.00
2013,03,28,05,47,7.00
2013,03,28,05,48,7.00
2013,03,28,05,49,7.00
2013,03,28,05,50,7.00
2013,03,28,05,51,7.00
2013,03,28,05,52,7.00
2013,03,28,05,53,7.00
2013,03,28,05,54,7.00
2013,03,28,05,55,7.00
2013,03,28,05,56,7.00
2013,03,28,05,57,7.00
2013,03,28,05,58,7.00
2013,03,28,05,59,6.90
2013,03,28,06,00,6.90
2013,03,28,06,01,6.90
2013,03,28,06,02,6.90
2013,03,28,06,03,6.90
2013,03,28,06,04,6.90
2013,03,28,06,05,6.90
2013,03,28,06,06,6.90
2013,03,28,06,07,6.90
2013,03,28,06,08,6.90
2013,03,28,06,09,6.90
2013,03,28,06,10,6.90
2013,03,28,06,11,6.80
2013,03,28,06,12,6.80
2013,03,28,06,13,6.80
2013,03,28,06,14,6.80
2013,03,28,06,15,6.80
2013,03,28,06,16,6.80
2013,03,28,06,17,6.80
2013,03,28,06,18,6.80
2013,03,28,06,19,6.80
2013,03,28,06,20,6.80
2013,03,28,06,21,6.80
2013,03,28,06,22,6.80
2013,03,28,06,23,6.80
2013,03,28,06,24,6.80
2013,03,28,06,25,6.80
2013,03,28,06,26,6.80
2013,03,28,06,27,6.80
2013,03,28,06,28,6.80
2013,03,28,06,29,6.80
2013,03,28,06,30,6.80
2013,03,28,06,31,6.80
2013,03,28,06,32,6.80
2013,03,28,06,33,6.80
2013,03,28,06,34,6.80
2013,03,28,06,35,6.80
2013,03,28,06,36,6.80
2013,03,28,06,37,6.80
2013,03,28,06,38,6.80
2013,03,28,06,39,6.70
2013,03,28,06,40,6.70
2013,03,28,06,41,6.70
2013,03,28,06,42,6.70
2013,03,28,06,43,6.70
2013,03,28,06,44,6.70
2013,03,28,06,45,6.70
2013,03,28,06,46,6.70
2013,03,28,06,47,6.70
2013,03,28,06,48,6.70
2013,03,28,06,49,6.70
2013,03,28,06,50,6.70
2013,03,28,06,51,6.70
2013,03,28,06,52,6.70
2013,03,28,06,53,6.70
2013,03,28,06,54,6.60
2013,03,28,06,55,6.70
2013,03,28,06,56,6.70
2013,03,28,06,57,6.70
2013,03,28,06,58,6.70
2013,03,28,06,59,6.70
2013,03,28,07,00,6.70
2013,03,28,07,01,6.70
2013,03,28,07,02,6.60
2013,03,28,07,03,6.60
2013,03,28,07,04,6.60
2013,03,28,07,05,6.60
2013,03,28,07,06,6.60
2013,03,28,07,07,6.60
2013,03,28,07,08,6.60
2013,03,28,07,09,6.50
2013,03,28,07,10,6.50
2013,03,28,07,11,6.50
2013,03,28,07,12,6.50
2013,03,28,07,13,6.50
2013,03,28,07,14,6.50
2013,03,28,07,15,6.60
2013,03,28,07,16,6.60
2013,03,28,07,17,6.60
2013,03,28,07,18,6.60
2013,03,28,07,19,6.60
2013,03,28,07,20,6.60
2013,03,28,07,21,6.60
2013,03,28,07,22,6.60
2013,03,28,07,23,6.60
2013,03,28,07,24,6.60
2013,03,28,07,25,6.60
2013,03,28,07,26,6.60
2013,03,28,07,27,6.60
2013,03,28,07,28,6.60
2013,03,28,07,29,6.60
2013,03,28,07,30,6.60
2013,03,28,07,31,6.50
2013,03,28,07,32,6.50
2013,03,28,07,33,6.50
2013,03,28,07,34,6.50
2013,03,28,07,35,6.50
2013,03,28,07,36,6.50
2013,03,28,07,37,6.50
2013,03,28,07,38,6.50
2013,03,28,07,39,6.50
2013,03,28,07,40,6.50
2013,03,28,07,41,6.50
2013,03,28,07,42,6.60
2013,03,28,07,43,6.60
2013,03,28,07,44,6.60
2013,03,28,07,45,6.60
2013,03,28,07,46,6.60
2013,03,28,07,47,6.70
2013,03,28,07,48,6.70
2013,03,28,07,49,6.70
2013,03,28,07,50,6.70
2013,03,28,07,51,6.80
2013,03,28,07,52,6.80
2013,03,28,07,53,6.80
2013,03,28,07,54,6.90
2013,03,28,07,55,6.90
2013,03,28,07,56,6.90
2013,03,28,07,57,7.00
2013,03,28,07,58,7.00
2013,03,28,07,59,7.10
2013,03,28,08,00,7.10
2013,03,28,08,01,7.20
2013,03,28,08,02,7.20
2013,03,28,08,03,7.20
2013,03,28,08,04,7.30
2013,03,28,08,05,7.40
2013,03,28,08,06,7.50
2013,03,28,08,07,7.60
2013,03,28,08,08,7.70
2013,03,28,08,09,7.70
2013,03,28,08,10,7.80
2013,03,28,08,11,7.90
2013,03,28,08,12,7.90
2013,03,28,08,13,8.00
2013,03,28,08,14,8.10
2013,03,28,08,15,8.20
2013,03,28,08,16,8.30
2013,03,28,08,17,8.40
2013,03,28,08,18,8.60
2013,03,28,08,19,8.70
2013,03,28,08,20,8.80
2013,03,28,08,21,8.90
2013,03,28,08,22,9.10
2013,03,28,08,23,9.20
2013,03,28,08,24,9.30
2013,03,28,08,25,9.50
2013,03,28,08,26,9.60
2013,03,28,08,27,9.70
2013,03,28,08,28,9.70
2013,03,28,08,29,9.90
2013,03,28,08,30,9.90
2013,03,28,08,31,10.00
2013,03,28,08,32,10.10
2013,03,28,08,33,10.10
2013,03,28,08,34,10.20
2013,03,28,08,35,10.30
2013,03,28,08,36,10.30
2013,03,28,08,37,10.40
2013,03,28,08,38,10.40
2013,03,28,08,39,10.50
2013,03,28,08,40,10.50
2013,03,28,08,41,10.50
2013,03,28,08,42,10.60
2013,03,28,08,43,10.60
2013,03,28,08,44,10.70
2013,03,28,08,45,10.70
2013,03,28,08,46,10.80
2013,03,28,08,47,10.80
2013,03,28,08,48,10.80
2013,03,28,08,49,10.80
2013,03,28,08,50,10.80
2013,03,28,08,51,10.80
2013,03,28,08,52,10.80
2013,03,28,08,53,10.80
2013,03,28,08,54,10.80
2013,03,28,08,55,10.80
2013,03,28,08,56,10.80
2013,03,28,08,57,10.80
2013,03,28,08,58,10.90
2013,03,28,08,59,10.90
2013,03,28,09,00,11.00
2013,03,28,09,01,11.00
2013,03,28,09,02,11.10
2013,03,28,09,03,11.10
2013,03,28,09,04,11.30
2013,03,28,09,05,11.30
2013,03,28,09,06,11.40
2013,03,28,09,07,11.50
2013,03,28,09,08,11.60
2013,03,28,09,09,11.70
2013,03,28,09,10,11.80
2013,03,28,09,11,11.90
2013,03,28,09,12,12.00
2013,03,28,09,13,12.10
2013,03,28,09,14,12.10
2013,03,28,09,15,12.10
2013,03,28,09,16,12.10
2013,03,28,09,17,12.10
2013,03,28,09,18,12.10
2013,03,28,09,19,12.10
2013,03,28,09,20,12.10
2013,03,28,09,21,12.20
2013,03,28,09,22,12.20
2013,03,28,09,23,12.20
2013,03,28,09,24,12.20
2013,03,28,09,25,12.20
2013,03,28,09,26,12.20
2013,03,28,09,27,12.20
2013,03,28,09,28,12.30
2013,03,28,09,29,12.30
2013,03,28,09,30,12.40
2013,03,28,09,31,12.50
2013,03,28,09,32,12.50
2013,03,28,09,33,12.60
2013,03,28,09,34,12.50
2013,03,28,09,35,12.50
2013,03,28,09,36,12.40
2013,03,28,09,37,12.40
2013,03,28,09,38,12.40
2013,03,28,09,39,12.40
2013,03,28,09,40,12.30
2013,03,28,09,41,12.30
2013,03,28,09,42,12.30
2013,03,28,09,43,12.30
2013,03,28,09,44,12.30
2013,03,28,09,45,12.30
2013,03,28,09,46,12.30
2013,03,28,09,47,12.30
2013,03,28,09,48,12.30
2013,03,28,09,49,12.30
2013,03,28,09,50,12.30
2013,03,28,09,51,12.30
2013,03,28,09,52,12.30
2013,03,28,09,53,12.40
2013,03,28,09,54,12.50
2013,03,28,09,55,12.60
2013,03,28,09,56,12.70
2013,03,28,09,57,12.80
2013,03,28,09,58,12.80
2013,03,28,09,59,12.90
2013,03,28,10,00,12.90
2013,03,28,10,01,12.90
2013,03,28,10,02,12.90
2013,03,28,10,03,12.90
2013,03,28,10,04,12.80
2013,03,28,10,05,12.80
2013,03,28,10,06,12.80
2013,03,28,10,07,12.80
2013,03,28,10,08,12.80
2013,03,28,10,09,12.80
2013,03,28,10,10,12.90
2013,03,28,10,11,13.00
2013,03,28,10,12,13.10
2013,03,28,10,13,13.10
2013,03,28,10,14,13.20
2013,03,28,10,15,13.20
2013,03,28,10,16,13.20
2013,03,28,10,17,13.20
2013,03,28,10,18,13.20
2013,03,28,10,19,13.20
2013,03,28,10,20,13.30
2013,03,28,10,21,13.30
2013,03,28,10,22,13.30
2013,03,28,10,23,13.40
2013,03,28,10,24,13.40
2013,03,28,10,25,13.40
2013,03,28,10,26,13.50
2013,03,28,10,27,13.60
2013,03,28,10,28,13.70
2013,03,28,10,29,13.70
2013,03,28,10,30,13.70
2013,03,28,10,31,13.70
2013,03,28,10,32,13.70
2013,03,28,10,33,13.80
2013,03,28,10,34,13.80
2013,03,28,10,35,13.80
2013,03,28,10,36,13.80
2013,03,28,10,37,13.80
2013,03,28,10,38,13.80
2013,03,28,10,39,13.80
2013,03,28,10,40,13.70
2013,03,28,10,41,13.70
2013,03,28,10,42,13.70
2013,03,28,10,43,13.70
2013,03,28,10,44,13.70
2013,03,28,10,45,13.80
2013,03,28,10,46,13.90
2013,03,28,10,47,14.00
2013,03,28,10,48,14.10
2013,03,28,10,49,14.00
2013,03,28,10,50,13.90
2013,03,28,10,51,13.80
2013,03,28,10,52,13.70
2013,03,28,10,53,13.70
2013,03,28,10,54,13.70
2013,03,28,10,55,13.80
2013,03,28,10,56,13.80
2013,03,28,10,57,13.90
2013,03,28,10,58,14.00
2013,03,28,10,59,14.10
2013,03,28,11,00,14.00
2013,03,28,11,01,14.00
2013,03,28,11,02,13.90
2013,03,28,11,03,14.00
2013,03,28,11,04,14.00
2013,03,28,11,05,14.00
2013,03,28,11,06,13.90
2013,03,28,11,07,13.90
2013,03,28,11,08,13.80
2013,03,28,11,09,13.80
2013,03,28,11,10,13.80
2013,03,28,11,11,13.80
2013,03,28,11,12,13.80
2013,03,28,11,13,13.80
2013,03,28,11,14,13.70
2013,03,28,11,15,13.60
2013,03,28,11,16,13.50
2013,03,28,11,17,13.40
2013,03,28,11,18,13.30
2013,03,28,11,19,13.30
2013,03,28,11,20,13.40
2013,03,28,11,21,13.30
2013,03,28,11,22,13.30
2013,03,28,11,23,13.20
2013,03,28,11,24,13.20
2013,03,28,11,25,13.20
2013,03,28,11,26,13.20
2013,03,28,11,27,13.20
2013,03,28,11,28,13.20
2013,03,28,11,29,13.20
2013,03,28,11,30,13.20
2013,03,28,11,31,13.20
2013,03,28,11,32,13.20
2013,03,28,11,33,13.20
2013,03,28,11,34,13.20
2013,03,28,11,35,13.30
2013,03,28,11,36,13.30
2013,03,28,11,37,13.30
2013,03,28,11,38,13.30
2013,03,28,11,39,13.30
2013,03,28,11,40,13.30
2013,03,28,11,41,13.30
2013,03,28,11,42,13.40
2013,03,28,11,43,13.40
2013,03,28,11,44,13.50
2013,03,28,11,45,13.60
2013,03,28,11,46,13.60
2013,03,28,11,47,13.60
2013,03,28,11,48,13.60
2013,03,28,11,49,13.60
2013,03,28,11,50,13.60
2013,03,28,11,51,13.60
2013,03,28,11,52,13.60
2013,03,28,11,53,13.60
2013,03,28,11,54,13.60
2013,03,28,11,55,13.50
2013,03,28,11,56,13.40
2013,03,28,11,57,13.30
2013,03,28,11,58,13.40
2013,03,28,11,59,13.40
2013,03,28,12,00,13.50
2013,03,28,12,01,13.50
2013,03,28,12,02,13.50
2013,03,28,12,03,13.60
2013,03,28,12,04,13.70
2013,03,28,12,05,13.80
2013,03,28,12,06,13.70
2013,03,28,12,07,13.70
2013,03,28,12,08,13.70
2013,03,28,12,09,13.70
2013,03,28,12,10,13.80
2013,03,28,12,11,13.80
2013,03,28,12,12,13.80
2013,03,28,12,13,13.80
2013,03,28,12,14,13.80
2013,03,28,12,15,13.90
2013,03,28,12,16,13.90
2013,03,28,12,17,13.80
2013,03,28,12,18,13.80
2013,03,28,12,19,13.90
2013,03,28,12,20,13.90
2013,03,28,12,21,13.90
2013,03,28,12,22,14.00
2013,03,28,12,23,14.10
2013,03,28,12,24,14.30
2013,03,28,12,25,14.30
2013,03,28,12,26,14.20
2013,03,28,12,27,14.10
2013,03,28,12,28,14.00
2013,03,28,12,29,14.00
2013,03,28,12,30,14.00
2013,03,28,12,31,14.10
2013,03,28,12,32,14.10
2013,03,28,12,33,14.10
2013,03,28,12,34,14.10
2013,03,28,12,35,14.10
2013,03,28,12,36,14.00
2013,03,28,12,37,14.00
2013,03,28,12,38,14.10
2013,03,28,12,39,14.10
2013,03,28,12,40,14.10
2013,03,28,12,41,14.20
2013,03,28,12,42,14.30
2013,03,28,12,43,14.30
2013,03,28,12,44,14.30
2013,03,28,12,45,14.30
2013,03,28,12,46,14.30
2013,03,28,12,47,14.20
2013,03,28,12,48,14.20
2013,03,28,12,49,14.10
2013,03,28,12,50,14.10
2013,03,28,12,51,14.00
2013,03,28,12,52,14.00
2013,03,28,12,53,14.00
2013,03,28,12,54,14.00
2013,03,28,12,55,14.10
2013,03,28,12,56,14.10
2013,03,28,12,57,14.10
2013,03,28,12,58,14.10
2013,03,28,12,59,14.10
2013,03,28,13,00,14.20
2013,03,28,13,01,14.10
2013,03,28,13,02,14.00
2013,03,28,13,03,14.00
2013,03,28,13,04,14.10
2013,03,28,13,05,14.10
2013,03,28,13,06,14.10
2013,03,28,13,07,14.10
2013,03,28,13,08,14.10
2013,03,28,13,09,14.00
2013,03,28,13,10,14.00
2013,03,28,13,11,14.00
2013,03,28,13,12,14.10
2013,03,28,13,13,14.10
2013,03,28,13,14,14.20
2013,03,28,13,15,14.20
2013,03,28,13,16,14.30
2013,03,28,13,17,14.40
2013,03,28,13,18,14.40
2013,03,28,13,19,14.50
2013,03,28,13,20,14.60
2013,03,28,13,21,14.60
2013,03,28,13,22,14.60
2013,03,28,13,23,14.60
2013,03,28,13,24,14.50
2013,03,28,13,25,14.50
2013,03,28,13,26,14.50
2013,03,28,13,27,14.50
2013,03,28,13,28,14.50
2013,03,28,13,29,14.50
2013,03,28,13,30,14.40
2013,03,28,13,31,14.50
2013,03,28,13,32,14.50
2013,03,28,13,33,14.60
2013,03,28,13,34,14.60
2013,03,28,13,35,14.60
2013,03,28,13,36,14.60
2013,03,28,13,37,14.50
2013,03,28,13,38,14.50
2013,03,28,13,39,14.50
2013,03,28,13,40,14.50
2013,03,28,13,41,14.50
2013,03,28,13,42,14.50
2013,03,28,13,43,14.60
2013,03,28,13,44,14.60
2013,03,28,13,45,14.70
2013,03,28,13,46,14.80
2013,03,28,13,47,14.80
2013,03,28,13,48,14.70
2013,03,28,13,49,14.70
2013,03,28,13,50,14.70
2013,03,28,13,51,14.60
2013,03,28,13,52,14.50
2013,03,28,13,53,14.40
2013,03,28,13,54,14.40
2013,03,28,13,55,14.40
2013,03,28,13,56,14.40
2013,03,28,13,57,14.40
2013,03,28,13,58,14.50
2013,03,28,13,59,14.60
2013,03,28,14,00,14.60
2013,03,28,14,01,14.70
2013,03,28,14,02,14.80
2013,03,28,14,03,14.80
2013,03,28,14,04,14.70
2013,03,28,14,05,14.60
2013,03,28,14,06,14.50
2013,03,28,14,07,14.40
2013,03,28,14,08,14.40
2013,03,28,14,09,14.30
2013,03,28,14,10,14.40
2013,03,28,14,11,14.40
2013,03,28,14,12,14.40
2013,03,28,14,13,14.40
2013,03,28,14,14,14.40
2013,03,28,14,15,14.40
2013,03,28,14,16,14.30
2013,03,28,14,17,14.40
2013,03,28,14,18,14.40
2013,03,28,14,19,14.40
2013,03,28,14,20,14.50
2013,03,28,14,21,14.60
2013,03,28,14,22,14.70
2013,03,28,14,23,14.70
2013,03,28,14,24,14.80
2013,03,28,14,25,14.80
2013,03,28,14,26,14.70
2013,03,28,14,27,14.70
2013,03,28,14,28,14.60
2013,03,28,14,29,14.60
2013,03,28,14,30,14.60
2013,03,28,14,31,14.50
2013,03,28,14,32,14.40
2013,03,28,14,33,14.30
2013,03,28,14,34,14.20
2013,03,28,14,35,14.20
2013,03,28,14,36,14.10
2013,03,28,14,37,14.10
2013,03,28,14,38,14.00
2013,03,28,14,39,13.90
2013,03,28,14,40,14.00
2013,03,28,14,41,14.00
2013,03,28,14,42,14.00
2013,03,28,14,43,14.10
2013,03,28,14,44,14.20
2013,03,28,14,45,14.30
2013,03,28,14,46,14.30
2013,03,28,14,47,14.40
2013,03,28,14,48,14.40
2013,03,28,14,49,14.30
2013,03,28,14,50,14.30
2013,03,28,14,51,14.40
2013,03,28,14,52,14.40
2013,03,28,14,53,14.50
2013,03,28,14,54,14.50
2013,03,28,14,55,14.50
2013,03,28,14,56,14.50
2013,03,28,14,57,14.50
2013,03,28,14,58,14.50
2013,03,28,14,59,14.50
2013,03,28,15,00,14.50
2013,03,28,15,01,14.50
2013,03,28,15,02,14.60
2013,03,28,15,03,14.60
2013,03,28,15,04,14.60
2013,03,28,15,05,14.60
2013,03,28,15,06,14.50
2013,03,28,15,07,14.50
2013,03,28,15,08,14.50
2013,03,28,15,09,14.50
2013,03,28,15,10,14.60
2013,03,28,15,11,14.70
2013,03,28,15,12,14.80
2013,03,28,15,13,15.00
2013,03,28,15,14,15.00
2013,03,28,15,15,15.00
2013,03,28,15,16,15.00
2013,03,28,15,17,15.00
2013,03,28,15,18,15.00
2013,03,28,15,19,15.00
2013,03,28,15,20,15.00
2013,03,28,15,21,15.00
2013,03,28,15,22,15.00
2013,03,28,15,23,14.90
2013,03,28,15,24,14.80
2013,03,28,15,25,14.80
2013,03,28,15,26,15.00
2013,03,28,15,27,15.00
2013,03,28,15,28,15.00
2013,03,28,15,29,15.20
2013,03,28,15,30,15.20
2013,03,28,15,31,15.20
2013,03,28,15,32,15.20
2013,03,28,15,33,15.20
2013,03,28,15,34,15.20
2013,03,28,15,35,15.20
2013,03,28,15,36,15.20
2013,03,28,15,37,15.20
2013,03,28,15,38,15.20
2013,03,28,15,39,15.20
2013,03,28,15,40,15.10
2013,03,28,15,41,15.10
2013,03,28,15,42,15.10
2013,03,28,15,43,15.10
2013,03,28,15,44,15.10
2013,03,28,15,45,15.00
2013,03,28,15,46,15.00
2013,03,28,15,47,15.00
2013,03,28,15,48,15.00
2013,03,28,15,49,15.00
2013,03,28,15,50,14.90
2013,03,28,15,51,14.80
2013,03,28,15,52,14.70
2013,03,28,15,53,14.60
2013,03,28,15,54,14.50
2013,03,28,15,55,14.40
2013,03,28,15,56,14.30
2013,03,28,15,57,14.20
2013,03,28,15,58,14.20
2013,03,28,15,59,14.20
2013,03,28,16,00,14.20
2013,03,28,16,01,14.20
2013,03,28,16,02,14.20
2013,03,28,16,03,14.20
2013,03,28,16,04,14.20
2013,03,28,16,05,14.20
2013,03,28,16,06,14.20
2013,03,28,16,07,14.20
2013,03,28,16,08,14.20
2013,03,28,16,09,14.20
2013,03,28,16,10,14.20
2013,03,28,16,11,14.10
2013,03,28,16,12,14.10
2013,03,28,16,13,14.10
2013,03,28,16,14,14.10
2013,03,28,16,15,14.10
2013,03,28,16,16,14.10
2013,03,28,16,17,14.00
2013,03,28,16,18,14.00
2013,03,28,16,19,14.00
2013,03,28,16,20,13.90
2013,03,28,16,21,13.90
2013,03,28,16,22,13.90
2013,03,28,16,23,13.90
2013,03,28,16,24,13.90
2013,03,28,16,25,13.90
2013,03,28,16,26,13.90
2013,03,28,16,27,13.90
2013,03,28,16,28,13.90
2013,03,28,16,29,13.90
2013,03,28,16,30,13.80
2013,03,28,16,31,13.80
2013,03,28,16,32,13.70
2013,03,28,16,33,13.60
2013,03,28,16,34,13.60
2013,03,28,16,35,13.50
2013,03,28,16,36,13.40
2013,03,28,16,37,13.40
2013,03,28,16,38,13.40
2013,03,28,16,39,13.30
2013,03,28,16,40,13.30
2013,03,28,16,41,13.30
2013,03,28,16,42,13.30
2013,03,28,16,43,13.30
2013,03,28,16,44,13.30
2013,03,28,16,45,13.30
2013,03,28,16,46,13.30
2013,03,28,16,47,13.30
2013,03,28,16,48,13.30
2013,03,28,16,49,13.20
2013,03,28,16,50,13.20
2013,03,28,16,51,13.20
2013,03,28,16,52,13.10
2013,03,28,16,53,13.10
2013,03,28,16,54,13.10
2013,03,28,16,55,13.10
2013,03,28,16,56,13.00
2013,03,28,16,57,13.00
2013,03,28,16,58,13.00
2013,03,28,16,59,13.00
2013,03,28,17,00,12.90
2013,03,28,17,01,12.90
2013,03,28,17,02,12.90
2013,03,28,17,03,12.90
2013,03,28,17,04,12.90
2013,03,28,17,05,12.90
2013,03,28,17,06,12.80
2013,03,28,17,07,12.80
2013,03,28,17,08,12.80
2013,03,28,17,09,12.80
2013,03,28,17,10,12.80
2013,03,28,17,11,12.80
2013,03,28,17,12,12.80
2013,03,28,17,13,12.80
2013,03,28,17,14,12.80
2013,03,28,17,15,12.80
2013,03,28,17,16,12.80
2013,03,28,17,17,12.80
2013,03,28,17,18,12.80
2013,03,28,17,19,12.80
2013,03,28,17,20,12.80
2013,03,28,17,21,12.80
2013,03,28,17,22,12.80
2013,03,28,17,23,12.80
2013,03,28,17,24,12.80
2013,03,28,17,25,12.80
2013,03,28,17,26,12.70
2013,03,28,17,27,12.70
2013,03,28,17,28,12.70
2013,03,28,17,29,12.70
2013,03,28,17,30,12.70
2013,03,28,17,31,12.70
2013,03,28,17,32,12.60
2013,03,28,17,33,12.60
2013,03,28,17,34,12.50
2013,03,28,17,35,12.40
2013,03,28,17,36,12.40
2013,03,28,17,37,12.40
2013,03,28,17,38,12.40
2013,03,28,17,39,12.40
2013,03,28,17,40,12.40
2013,03,28,17,41,12.40
2013,03,28,17,42,12.50
2013,03,28,17,43,12.50